Weather History for Lakeland Region, FL

Change the Weather History Date:

Monday, July 1, 2013

  Actual Average Record
Temperature  
Mean Temperature 76 °F -  
Max Temperature 80 °F 88 °F 95 °F (1992)
Min Temperature 71 °F 71 °F 69 °F (1996)
Cooling Degree Days 10    
Growing Degree Days 26 (Base 50)    
Moisture  
Dew Point 72 °F    
Average Humidity 92    
Maximum Humidity 100    
Minimum Humidity 74    
Precipitation  
Precipitation 0.00 in - - ()
Sea Level Pressure  
Sea Level Pressure 29.94 in    
Wind  
Wind Speed 8 mph (South)    
Max Wind Speed 14 mph    
Max Gust Speed 18 mph    
Visibility 9 miles    
Events Rain , Thunderstorm    
Averages and records for this station are not official NWS values.
T = Trace of Precipitation, MM = Missing Value Source: NWS Daily Summary

Daily Weather History Graph

Daily Weather History Graph

Search for Another Location

Airport:

Trip Planner

Search our weather history database for the weather conditions in past years. The results will help you decide how hot, cold, wet, or windy it might be!

Date:

Astronomy

Jul. 01, 2013 Rise Set
Actual Time 6:35 AM EDT 8:28 PM EDT
Civil Twilight 6:08 AM EDT 8:55 PM EDT
Nautical Twilight 5:36 AM EDT 9:27 PM EDT
Astronomical Twilight 5:02 AM EDT 10:01 PM EDT
Moon 1:45 AM EDT (7/1) 2:58 PM EDT (7/1)
Length of Visible Light 14h 46m
Length of Day
13h 53m
Waning Crescent, 35% of the Moon is Illuminated
Jul 1
Waning Crescent
Jul 8
New
Jul 15
First Quarter
Jul 22
Full
Jul 29
Last Quarter

Hourly Weather History & Observations

Time (EDT) Temp. Heat Index Dew Point Humidity Pressure Visibility Wind Dir Wind Speed Gust Speed Precip Events Conditions
12:15 AM 73.4 °F - 71.6 °F 94% 29.90 in 10.0 mi South 9.2 mph - N/A   Clear
12:35 AM 73.4 °F - 71.6 °F 94% 29.92 in 10.0 mi South 9.2 mph - N/A Thunderstorm Scattered Clouds
12:55 AM 73.4 °F - 71.6 °F 94% 29.92 in 10.0 mi South 6.9 mph - N/A Thunderstorm Unknown
1:15 AM 73.4 °F - 71.6 °F 94% 29.92 in 10.0 mi South 10.4 mph 16.1 mph N/A   Overcast
1:35 AM 73.4 °F - 71.6 °F 94% 29.91 in 10.0 mi SSE 9.2 mph - N/A Thunderstorm Overcast
1:55 AM 73.4 °F - 71.6 °F 94% 29.91 in 10.0 mi SSE 8.1 mph - N/A Thunderstorm Overcast
2:15 AM 73.4 °F - 71.6 °F 94% 29.92 in 10.0 mi South 5.8 mph - N/A   Mostly Cloudy
2:35 AM 73.4 °F - 71.6 °F 94% 29.91 in 10.0 mi SSE 8.1 mph - N/A   Mostly Cloudy
2:55 AM 73.4 °F - 71.6 °F 94% 29.90 in 10.0 mi South 5.8 mph - N/A   Mostly Cloudy
3:15 AM 73.4 °F - 71.6 °F 94% 29.90 in 10.0 mi SSE 8.1 mph - N/A   Mostly Cloudy
3:35 AM 73.4 °F - 71.6 °F 94% 29.89 in 10.0 mi South 6.9 mph - N/A   Scattered Clouds
3:55 AM 73.4 °F - 71.6 °F 94% 29.89 in 10.0 mi South 3.5 mph - N/A   Scattered Clouds
4:15 AM 73.4 °F - 71.6 °F 94% 29.89 in 10.0 mi South 5.8 mph - N/A   Mostly Cloudy
4:35 AM 73.4 °F - 71.6 °F 94% 29.90 in 10.0 mi SSE 6.9 mph - N/A   Mostly Cloudy
4:55 AM 73.4 °F - 71.6 °F 94% 29.89 in 10.0 mi SSE 6.9 mph - N/A Rain Light Rain
5:15 AM 73.4 °F - 71.6 °F 94% 29.88 in 10.0 mi SSE 6.9 mph - N/A   Mostly Cloudy
5:35 AM 73.4 °F - 71.6 °F 94% 29.88 in 10.0 mi SSE 12.7 mph 16.1 mph N/A   Mostly Cloudy
5:50 AM 73.4 °F - 71.6 °F 94% 29.88 in 7.0 mi SSE 10.4 mph 18.4 mph N/A   Mostly Cloudy
5:55 AM 73.4 °F - 71.6 °F 94% 29.89 in 10.0 mi South 10.4 mph - N/A   Mostly Cloudy
6:15 AM 73.4 °F - 71.6 °F 94% 29.89 in 10.0 mi South 8.1 mph - N/A   Mostly Cloudy
6:35 AM 73.4 °F - 71.6 °F 94% 29.91 in 10.0 mi South 9.2 mph - N/A   Scattered Clouds
6:45 AM 73.4 °F - 71.6 °F 94% 29.91 in 8.0 mi South 11.5 mph - N/A   Overcast
7:50 AM 75.2 °F - 71.6 °F 89% 29.94 in 8.0 mi South 11.5 mph 17.3 mph N/A   Overcast
8:50 AM 75.2 °F - 71.6 °F 89% 29.94 in 10.0 mi South 11.5 mph - N/A   Mostly Cloudy
9:50 AM 75.2 °F - 71.6 °F 89% 29.95 in 10.0 mi South 9.2 mph - N/A   Mostly Cloudy
10:50 AM 75.2 °F - 71.6 °F 89% 29.95 in 10.0 mi SSW 6.9 mph - N/A   Overcast
11:50 AM 77.0 °F - 71.6 °F 83% 29.97 in 1.0 mi South 5.8 mph - N/A   Overcast
11:59 AM 77.0 °F - 71.6 °F 83% 29.97 in 10.0 mi South 5.8 mph - N/A   Overcast
12:05 PM 78.8 °F - 73.4 °F 83% 29.99 in 10.0 mi SSW 9.2 mph 17.3 mph N/A   Overcast
1:50 PM 80.6 °F 84.6 °F 71.6 °F 74% 29.97 in 10.0 mi SSW 11.5 mph - N/A   Overcast
2:51 PM 78.8 °F - 71.6 °F 78% 29.98 in 5.0 mi SSW 13.8 mph 18.4 mph N/A Rain Light Rain
3:55 PM 75.2 °F - 73.4 °F 94% 29.98 in 7.0 mi South 11.5 mph - N/A Rain Light Rain
4:51 PM 75.2 °F - 71.6 °F 89% 29.98 in 8.0 mi SSW 8.1 mph - N/A Rain Light Rain
5:55 PM 75.2 °F - 71.6 °F 89% 29.98 in 10.0 mi SSW 11.5 mph - N/A   Overcast
6:50 PM 73.4 °F - 71.6 °F 94% 30.00 in 5.0 mi SSE 11.5 mph 17.3 mph N/A Rain Rain
7:50 PM 73.4 °F - 71.6 °F 94% 30.00 in 7.0 mi South 5.8 mph - N/A Rain Light Rain
8:56 PM 71.6 °F - 71.6 °F 100% 30.01 in 10.0 mi SE 6.9 mph - N/A   Overcast
9:54 PM 71.6 °F - 71.6 °F 100% 30.03 in 5.0 mi ESE 6.9 mph - N/A Rain Light Rain
10:55 PM 71.6 °F - 69.8 °F 94% 30.03 in 10.0 mi SE 5.8 mph - N/A Rain Rain
11:15 PM 71.6 °F - 69.8 °F 94% 30.02 in 10.0 mi SE 6.9 mph - N/A   Light Drizzle
11:35 PM 71.6 °F - 69.8 °F 94% 30.02 in 10.0 mi SE 8.1 mph - N/A   Mostly Cloudy
11:55 PM 71.6 °F - 69.8 °F 94% 30.02 in 10.0 mi ESE 4.6 mph - N/A   Scattered Clouds